Torna al catalogo

STARLINK-35850

AttivoComunicazioniVLEO
NORAD 66352·PAYLOAD·🇺🇸 United States

Lanciato Nov 6, 2025 da Vandenberg Space Force Base

Loading…

Prossimi Passaggi (prossime 24 ore)

TLE

AggiornatoSource: CelesTrak SupGP

Epoca: Sep 14, 2026, 21:28 UTC

1 66352C 25254E   26257.89493056  .00021645  00000+0  63963-3 0  2570
2 66352  53.1582  71.5675 0001159  80.9361 245.2155 15.34373417    15

Traccia STARLINK-35850 in tempo reale con AllMySat

Download on the App Store